Westminster, MD

8:01 AM EST on February 24, 2018 (GMT -0500)
Carroll County Regional-Poage

Weather History for KDMW - December, 2013

Change the Weather History Date:

Monday, December 23, 2013

  Actual Average (KTHV) Record (KTHV)
Temperature  
Mean Temperature 48 °F -  
Max Temperature 60 °F 0 °F 66 °F (2015)
Min Temperature 35 °F - 6 °F (2000)
Degree Days  
Heating Degree Days 18    
Moisture  
Dew Point 46 °F    
Average Humidity 83    
Maximum Humidity 100    
Minimum Humidity 60    
Precipitation  
Precipitation 0.27 in - - ()
Sea Level Pressure  
Sea Level Pressure 30.05 in    
Wind  
Wind Speed 7 mph (WNW)    
Max Wind Speed 14 mph    
Max Gust Speed 22 mph    
Visibility 9 miles    
Events Rain    
Averages and records for this station are not official NWS values.
T = Trace of Precipitation, MM = Missing Value Source: NWS Daily Summary

Daily Weather History Graph

Daily Weather History Graph

Search for Another Location

Airport or City:

Trip Planner

Search our weather history database for the weather conditions in past years. The results will help you decide how hot, cold, wet, or windy it might be!

Date:

Astronomy

Dec. 23, 2013 Rise Set
Actual Time 7:26 AM EST 4:48 PM EST
Civil Twilight 6:55 AM EST 5:18 PM EST
Nautical Twilight 6:21 AM EST 5:52 PM EST
Astronomical Twilight 5:49 AM EST 6:25 PM EST
Moon 10:55 PM EST (12/23) 10:51 AM EST (12/23)
Length of Visible Light 10h 22m
Length of Day
9h 22m
Waning Gibbous, 68% of the Moon is Illuminated
Dec 23
Waning Gibbous
Dec 25
Last Quarter
Jan 1
New
Jan 7
First Quarter
Jan 15
Full

Hourly Weather History & Observations

Time (EST) Temp. Windchill Dew Point Humidity Pressure Visibility Wind Dir Wind Speed Gust Speed Precip Events Conditions
12:15 AM 60.8 °F - 57.2 °F 88% 29.98 in 10.0 mi SW 10.4 mph 17.3 mph N/A   Scattered Clouds
12:35 AM 60.8 °F - 57.2 °F 88% 29.98 in 10.0 mi SW 8.1 mph - N/A   Clear
12:55 AM 60.8 °F - 57.2 °F 88% 29.99 in 10.0 mi SW 10.4 mph 16.1 mph N/A   Clear
1:15 AM 60.8 °F - 57.2 °F 88% 29.96 in 10.0 mi SW 5.8 mph - N/A   Scattered Clouds
1:35 AM 60.8 °F - 57.2 °F 88% 29.98 in 10.0 mi SW 6.9 mph - N/A   Scattered Clouds
1:55 AM 60.8 °F - 57.2 °F 88% 29.98 in 10.0 mi SSW 5.8 mph - N/A   Mostly Cloudy
2:15 AM 60.8 °F - 57.2 °F 88% 29.98 in 10.0 mi SSW 5.8 mph - N/A   Drizzle
2:35 AM 60.8 °F - 57.2 °F 88% 29.99 in 10.0 mi SSW 6.9 mph - N/A Rain Light Rain
2:55 AM 60.8 °F - 59.0 °F 94% 29.99 in 10.0 mi WSW 5.8 mph - 0.01 in Rain Rain
3:20 AM 59.0 °F - 59.0 °F 100% 29.99 in 10.0 mi SW 4.6 mph - 0.02 in Rain Light Rain
3:40 AM 59.0 °F - 59.0 °F 100% 29.99 in 7.0 mi SW 4.6 mph - 0.03 in Rain Rain
4:00 AM 60.8 °F - 59.0 °F 94% 29.97 in 10.0 mi WSW 5.8 mph - 0.01 in Rain Light Rain
4:20 AM 59.0 °F - 59.0 °F 100% 29.98 in 10.0 mi WSW 5.8 mph - 0.02 in Rain Rain
4:40 AM 59.0 °F - 59.0 °F 100% 29.97 in 10.0 mi West 5.8 mph - 0.04 in Rain Rain
5:00 AM 59.0 °F - 59.0 °F 100% 29.97 in 10.0 mi West 3.5 mph - 0.01 in Rain Rain
5:20 AM 59.0 °F - 57.2 °F 94% 29.97 in 10.0 mi West 4.6 mph - 0.03 in Rain Rain
5:40 AM 57.2 °F - 57.2 °F 100% 29.96 in 10.0 mi West 3.5 mph - 0.05 in Rain Rain
6:00 AM 57.2 °F - 57.2 °F 100% 29.96 in 7.0 mi Calm Calm - 0.01 in Rain Rain
6:20 AM 57.2 °F - 57.2 °F 100% 29.97 in 5.0 mi Calm Calm - 0.02 in Rain Rain
6:40 AM 57.2 °F - 57.2 °F 100% 29.97 in 4.0 mi Calm Calm - 0.05 in Rain Heavy Rain
7:00 AM 57.2 °F - 57.2 °F 100% 29.97 in 7.0 mi ESE 3.5 mph - 0.01 in Rain Light Rain
7:20 AM 57.2 °F - 57.2 °F 100% 29.94 in 10.0 mi ESE 4.6 mph - 0.01 in Rain Rain
7:40 AM 57.2 °F - 57.2 °F 100% 29.91 in 10.0 mi SE 9.2 mph - 0.02 in Rain Light Rain
8:00 AM 57.2 °F - 57.2 °F 100% 29.95 in 10.0 mi West 5.8 mph - N/A   Drizzle
8:20 AM 57.2 °F - 57.2 °F 100% 29.96 in 5.0 mi NW 3.5 mph - 0.01 in Rain Rain
8:40 AM 57.2 °F - 55.4 °F 94% 29.98 in 5.0 mi WNW 5.8 mph - 0.02 in Rain Rain
9:00 AM 57.2 °F - 55.4 °F 94% 29.97 in 4.0 mi NNW 3.5 mph - 0.01 in Rain Light Rain
9:20 AM 57.2 °F - 55.4 °F 94% 29.95 in 5.0 mi Calm Calm - 0.01 in Rain Light Rain
9:40 AM 57.2 °F - 55.4 °F 94% 30.00 in 7.0 mi WNW 6.9 mph - 0.02 in   Light Drizzle
10:00 AM 57.2 °F - 55.4 °F 94% 29.99 in 7.0 mi WNW 10.4 mph - 0.02 in Rain Light Rain
10:20 AM 55.4 °F - 55.4 °F 100% 30.00 in 7.0 mi WNW 9.2 mph - 0.02 in   Drizzle
10:40 AM 55.4 °F - 55.4 °F 100% 30.00 in 10.0 mi WNW 5.8 mph - 0.02 in   Overcast
11:00 AM 55.4 °F - 53.6 °F 94% 30.00 in 10.0 mi NW 10.4 mph - N/A   Overcast
11:20 AM 55.4 °F - 53.6 °F 94% 30.00 in 10.0 mi NNW 4.6 mph - N/A Rain Rain
11:40 AM 55.4 °F - 51.8 °F 88% 29.99 in 10.0 mi North 5.8 mph - 0.01 in   Overcast
12:00 PM 55.4 °F - 51.8 °F 88% 30.00 in 10.0 mi North 3.5 mph - N/A   Light Drizzle
12:20 PM 55.4 °F - 51.8 °F 88% 29.98 in 10.0 mi North 3.5 mph - N/A   Overcast
12:40 PM 55.4 °F - 51.8 °F 88% 30.01 in 10.0 mi NW 8.1 mph - N/A   Overcast
1:00 PM 55.4 °F - 50.0 °F 82% 29.99 in 10.0 mi NNW 4.6 mph - N/A Rain Light Rain
1:20 PM 53.6 °F - 50.0 °F 88% 30.03 in 10.0 mi WNW 6.9 mph - N/A   Light Drizzle
1:40 PM 53.6 °F - 50.0 °F 88% 30.02 in 10.0 mi NW 6.9 mph - N/A Rain Rain
2:00 PM 53.6 °F - 48.2 °F 82% 30.04 in 10.0 mi NW 13.8 mph - N/A Rain Light Rain
2:20 PM 51.8 °F - 46.4 °F 82% 30.05 in 10.0 mi WNW 6.9 mph - N/A   Overcast
2:40 PM 51.8 °F - 46.4 °F 82% 30.06 in 10.0 mi WNW 9.2 mph - N/A   Overcast
3:00 PM 50.0 °F - 42.8 °F 76% 30.07 in 10.0 mi West 11.5 mph - N/A   Overcast
3:20 PM 48.2 °F - 42.8 °F 82% 30.08 in 10.0 mi WNW 6.9 mph - N/A   Overcast
3:40 PM 48.2 °F - 39.2 °F 71% 30.09 in 10.0 mi WNW 13.8 mph 18.4 mph N/A Rain Light Rain
4:00 PM 48.2 °F - 37.4 °F 66% 30.10 in 10.0 mi WNW 11.5 mph 18.4 mph N/A   Overcast
4:20 PM 48.2 °F - 37.4 °F 66% 30.10 in 10.0 mi WNW 8.1 mph - N/A   Overcast
4:40 PM 46.4 °F 41.5 °F 39.2 °F 76% 30.12 in 10.0 mi NW 10.4 mph 20.7 mph N/A   Overcast
5:00 PM 46.4 °F 41.1 °F 35.6 °F 66% 30.13 in 10.0 mi NW 11.5 mph 18.4 mph N/A   Overcast
5:20 PM 44.6 °F 39.7 °F 35.6 °F 71% 30.14 in 10.0 mi NW 9.2 mph 21.9 mph N/A   Overcast
5:40 PM 44.6 °F 38.4 °F 35.6 °F 71% 30.14 in 10.0 mi NW 12.7 mph 20.7 mph N/A   Overcast
6:00 PM 42.8 °F 35.8 °F 32.0 °F 66% 30.15 in 10.0 mi NW 13.8 mph 18.4 mph N/A   Overcast
6:20 PM 42.8 °F 37.0 °F 32.0 °F 66% 30.16 in 10.0 mi NW 10.4 mph 19.6 mph N/A   Overcast
6:40 PM 41.0 °F 35.2 °F 32.0 °F 70% 30.18 in 10.0 mi NW 9.2 mph - N/A   Overcast
7:00 PM 41.0 °F 33.5 °F 32.0 °F 70% 30.18 in 10.0 mi WNW 13.8 mph - N/A   Overcast
7:20 PM 39.2 °F 33.6 °F 30.2 °F 70% 30.19 in 10.0 mi NW 8.1 mph 19.6 mph N/A   Overcast
7:40 PM 39.2 °F 31.2 °F 28.4 °F 65% 30.19 in 10.0 mi NW 13.8 mph 21.9 mph N/A   Overcast
8:00 PM 37.4 °F 31.4 °F 26.6 °F 65% 30.19 in 10.0 mi NW 8.1 mph - N/A   Mostly Cloudy
8:20 PM 37.4 °F 31.4 °F 26.6 °F 65% 30.20 in 10.0 mi NW 8.1 mph 17.3 mph N/A   Scattered Clouds
8:40 PM 37.4 °F 32.8 °F 26.6 °F 65% 30.20 in 10.0 mi NNW 5.8 mph 18.4 mph N/A   Scattered Clouds
9:00 PM 37.4 °F 30.3 °F 26.6 °F 65% 30.19 in 10.0 mi NW 10.4 mph - N/A   Scattered Clouds
9:20 PM 37.4 °F 32.1 °F 26.6 °F 65% 30.20 in 10.0 mi NNW 6.9 mph - N/A   Scattered Clouds
9:40 PM 37.4 °F 30.8 °F 24.8 °F 60% 30.21 in 10.0 mi NNW 9.2 mph - N/A   Scattered Clouds
10:00 PM 35.6 °F 29.2 °F 24.8 °F 65% 30.21 in 10.0 mi NW 8.1 mph - N/A   Scattered Clouds
10:20 PM 35.6 °F 28.6 °F 24.8 °F 65% 30.21 in 10.0 mi NW 9.2 mph - N/A   Scattered Clouds
10:40 PM 35.6 °F 31.7 °F 24.8 °F 65% 30.22 in 10.0 mi NW 4.6 mph - N/A   Scattered Clouds
11:00 PM 35.6 °F 30.7 °F 24.8 °F 65% 30.22 in 10.0 mi NW 5.8 mph - N/A   Scattered Clouds
11:20 PM 35.6 °F 29.9 °F 24.8 °F 65% 30.22 in 10.0 mi NW 6.9 mph - N/A   Scattered Clouds
11:40 PM 35.6 °F 31.7 °F 24.8 °F 65% 30.22 in 10.0 mi NW 4.6 mph - N/A   Scattered Clouds